RISAT-2BR2 (46905 NORAD) Tracking and Keplerian Element Data

This shows tracking and keplerian element data for the satellite.

Feedback or suggestion? Click here.




ElementValue
Catalog46905
NameRISAT-2BR2
Epoch Orbit231
Epoch Day327.8382832
Epoch Year2020
RAAN8.6082
Inclination36.9015
Eccentricity0.0005081
Argument of Perigee67.1295
Mean Anonmoly292.9984
Mean Motion14.98136221
Decay Rate3.28E-06
L11 46905U 20081A 20327.83828320 .00000328 00000-0 33597-4 0 9997
L22 46905 36.9015 8.6082 0005081 67.1295 292.9984 14.98136221 2314

Live tracking and technical data element details for RISAT-2BR2 (NORAD 46905). RISAT-2BR2 can be tracked NOW for your location showing map with azimuth and elevation plus other details from your city location.

Track the satellite on the map from your city or location and see movement details for azimuth, elevation, latitude, longitude, range, height, and movement on the map or in text.







IsCatalogInMostPopularTable: catalog: 46905, numindb: 5
Update: records affected: 1



GetName: 46905 RISAT-2BR2

Hit Count: updated at: Tue, 24 Nov 2020 12:12:31 GMT